Location: Johnson City
(36.3130°N, 82.3540°W)
Time: 18:49:18
(UTC-04:00)

Envisat - Visible Passes

Search period start: 24 April 2019 00:00
Search period end: 04 May 2019 00:00
Orbit: 764 x 766 km, 98.2° (Epoch: 24 April)

Date Brightness Start Highest point End Pass type
(mag) Time Alt. Az. Time Alt. Az. Time Alt. Az.
24 Apr 5.1 20:53:34 10° SSW 20:57:57 29° W 21:02:20 10° NW visible
26 Apr 5.8 21:20:36 10° SW 21:23:40 16° W 21:26:44 10° NW visible
27 Apr 4.6 20:41:59 10° SSW 20:46:40 37° W 20:51:22 10° NNW visible
29 Apr 5.6 21:08:36 10° SW 21:12:20 21° W 21:16:07 10° NW visible
01 May 6.1 21:36:55 10° WSW 21:38:07 11° W 21:39:20 10° WNW visible
02 May 5.2 20:56:50 10° SSW 21:01:03 26° W 21:05:17 10° NW visible
